[[{"header":{"parameterUnit":"m.s-1","parameterCategory":1,"la1":30.2991,"la2":30.254,"lo1":-89.0895,"lo2":-89.0444,"dy":0.0017,"dx":0.0017,"nx":28,"ny":28,"refTime":"2024-07-30T03:00:00:Z","depth":0,"parameterNumber":2,"parameterNumberName":"U-component_of_WINDS"},"data":[0,0,0,0,0,0,0,0,0,0,0,0,0,0,0,0,0,0,0,0,0,0,0,0,0,0,0,0,0,0,0,0,0,0,0,0,0,0,0,0,0,0,0,0,0,0,0,0,0,0,0,0,0,0,0,0,0,0,1.7592,1.7592,0,1.768,1.7681,1.7682,1.7672,1.7671,1.767,1.7668,1.7758,1.7762,1.7765,0,0,0,0,0,0,0,0,0,0,0,0,0,1.7413,1.7416,1.7591,1.7593,1.7594,1.7679,1.7681,1.7682,1.7673,1.7671,1.7669,1.7668,1.7757,1.7761,1.7766,0,0,0,0,0,0,0,0,0,0,0,0,0,1.7495,1.7417,1.7591,1.7599,1.7601,1.7679,1.7681,1.7682,1.7673,1.7671,1.7669,1.7667,1.7755,1.7761,1.7766,1.7842,0,0,1.7783,1.7786,0,0,0,0,0,0,0,0,1.749,1.7501,1.7597,1.7599,1.7601,1.7663,1.7651,1.7736,1.7673,1.7646,1.7668,1.7666,1.7728,1.7736,1.7757,1.7846,1.785,1.7784,1.7787,1.7789,1.7791,0,0,0,0,0,0,0,1.7484,1.7497,1.7626,1.7598,1.7601,1.7598,1.7607,1.7667,1.7697,1.7648,1.7647,1.7658,1.7729,1.7751,1.7759,1.7851,1.7783,1.7788,1.7792,1.7794,1.8004,1.8006,0,0,0,0,0,0,1.7477,1.7493,1.7623,1.7629,1.7539,1.7603,1.7613,1.7645,1.7697,1.7703,1.766,1.7657,1.7743,1.7752,1.7762,1.7852,1.7789,1.7794,1.7798,1.8002,1.8005,1.8007,0,0,0,0,0,0,1.7473,1.7489,1.762,1.7561,1.7577,1.7608,1.7644,1.7648,1.7671,1.7706,1.7711,1.7677,1.7742,1.7754,1.7821,1.7855,1.7797,1.7802,1.7999,1.8003,1.8006,1.8034,0,0,0,0,0,0,1.7468,1.7487,1.7517,1.7561,1.758,1.7679,1.7646,1.7651,1.768,1.7678,1.7724,1.7729,1.7741,1.7813,1.7827,1.7861,1.7806,1.7996,1.8001,1.8005,1.803,1.8038,1.8044,0,0,0,0,0,1.7462,1.7522,1.7519,1.7535,1.7618,1.7681,1.7692,1.7704,1.7683,1.7713,1.7735,1.7728,1.7849,1.782,1.7836,1.7872,1.7994,1.7999,1.8004,1.8027,1.8036,1.8044,0,0,0,0,0,0,1.7481,1.7528,1.7525,1.7602,1.7637,1.7679,1.7717,1.7714,1.7756,1.7752,1.7766,1.7776,1.7843,1.7865,1.7832,1.7947,1.7919,1.7927,1.793,1.794,1.7947,1.794,1.7811,0,0,0,0,0,1.7494,1.7542,1.758,1.7644,1.7662,1.7686,1.7714,1.772,1.7758,1.7773,1.78,1.7836,1.7882,1.7912,1.7957,1.8033,1.8042,1.8066,1.8073,1.8078,1.8085,1.8125,1.8135,1.8024,1.8024,1.8024,0,0,1.7522,1.7554,1.7583,1.7648,1.7677,1.7724,1.7699,1.7751,1.7786,1.7781,1.7845,1.7866,1.7907,1.7979,1.8012,1.7999,1.8118,1.8085,1.8089,1.8093,1.8131,1.8141,1.8151,1.8027,1.8027,1.8026,0,0,1.7597,1.7626,1.7681,1.771,1.7753,1.7768,1.7782,1.7824,1.7837,1.7902,1.7898,1.794,1.802,1.8048,1.8073,1.8156,1.8151,1.817,1.8208,1.8246,1.8254,1.8262,1.829,1.83,1.8177,1.8177,1.8177,0,1.7626,1.7698,1.771,1.7762,1.779,1.7787,1.7842,1.7869,1.7924,1.7943,1.7928,1.8026,1.8054,1.813,1.815,1.8171,1.8185,1.8165,1.8252,1.826,1.8268,1.8294,1.8305,1.8179,1.8179,1.8179,1.8179,0,1.7731,1.778,1.782,1.7872,1.7905,1.7958,1.7977,1.8009,1.8011,1.8028,1.8093,1.8126,1.8176,1.8195,1.8199,1.8272,1.8262,1.8249,1.8221,1.828,1.8305,1.8315,1.8182,1.8181,1.8181,1.818,0,0,1.7821,1.7878,1.7892,1.7915,1.7961,1.7999,1.8052,1.81,1.8126,1.8164,1.8206,1.8273,1.8261,1.8289,1.8296,1.833,1.839,1.8313,1.8314,1.8325,1.847,1.8478,1.849,1.8387,1.8389,1.8391,1.8466,0,1.7899,1.7991,1.8003,1.8085,1.8129,1.8126,1.8171,1.8203,1.822,1.826,1.8278,1.8324,1.8306,1.8322,1.8356,1.8376,1.842,1.8371,1.8426,1.8428,1.8415,1.8503,1.8513,1.8582,1.8476,1.8478,1.8479,0,1.8002,1.8042,1.8128,1.8166,1.8185,1.8225,1.8269,1.8308,1.8344,1.8353,1.8384,1.8386,1.8438,1.8408,1.848,1.8446,1.8469,1.8483,1.8485,1.849,1.8456,1.8509,1.8605,1.8614,1.8495,1.8494,1.8493,0,1.8057,1.8132,1.8193,1.8212,1.8259,1.8286,1.8307,1.8341,1.8368,1.8407,1.8424,1.8468,1.8492,1.8526,1.8539,1.8516,1.8609,1.8581,1.8617,1.8616,1.8636,1.8634,1.8735,1.8653,1.8653,1.8653,1.8653,0,1.8142,1.8194,1.8217,1.8255,1.8312,1.8324,1.8381,1.84,1.843,1.847,1.847,1.8507,1.8523,1.8562,1.8573,1.8629,1.864,1.8648,1.865,1.8647,1.8646,1.8662,1.8657,1.8656,1.8655,1.8654,1.8654,0,1.8213,1.8231,1.8296,1.8334,1.8344,1.8385,1.8417,1.8452,1.8467,1.8517,1.853,1.8554,1.86,1.8617,1.8673,1.868,1.8744,1.8743,1.8732,1.8732,1.8767,1.8762,1.888,1.8895,1.8805,1.8806,1.8806,0,1.8265,1.8305,1.8347,1.8373,1.8394,1.8437,1.8465,1.8478,1.8506,1.8549,1.8578,1.8624,1.8661,1.8735,1.8757,1.8799,1.8798,1.8836,1.8804,1.8799,1.8796,1.8793,1.8796,1.8842,1.8843,1.8843,1.8844,0,1.8356,1.8362,1.8402,1.8445,1.8478,1.8512,1.8545,1.8567,1.8584,1.8616,1.8663,1.8691,1.8748,1.8792,1.8835,1.8855,1.8852,1.8854,1.8864,1.8861,1.8852,1.8856,1.8747,1.8851,1.885,1.885,1.8849,1.8849,1.8418,1.8452,1.8486,1.853,1.8556,1.8586,1.862,1.864,1.8679,1.8726,1.8731,1.878,1.8813,1.887,1.8892,1.893,1.892,1.8935,1.8939,1.8942,1.8944,1.8847,1.8939,1.8938,1.8938,1.8938,1.8938,0,1.8507,1.8528,1.8568,1.8614,1.8648,1.8642,1.8678,1.8706,1.875,1.8781,1.8817,1.8869,1.8912,1.8937,1.8979,1.9005,1.9004,1.9015,1.9013,1.9017,1.8952,1.8938,1.9015,1.9015,1.9015,1.9015,1.9015,1.9015,1.8557,1.8614,1.8624,1.8693,1.8714,1.8762,1.8783,1.881,1.8834,1.8893,1.8928,1.8944,1.8972,1.9016,1.9054,1.906,1.9075,1.9087,1.9092,1.903,1.9022,1.9014,1.9001,1.9091,1.9091,1.9154,1.9154,1.9155]},{"header":{"parameterUnit":"m.s-1","parameterCategory":1,"la1":30.2991,"la2":30.254,"lo1":-89.0895,"lo2":-89.0444,"dy":0.0017,"dx":0.0017,"nx":28,"ny":28,"refTime":"2024-07-30T03:00:00:Z","depth":0,"parameterNumber":3,"parameterNumberName":"V-component_of_WINDS"},"data":[0,0,0,0,0,0,0,0,0,0,0,0,0,0,0,0,0,0,0,0,0,0,0,0,0,0,0,0,0,0,0,0,0,0,0,0,0,0,0,0,0,0,0,0,0,0,0,0,0,0,0,0,0,0,0,0,0,0,4.1655,4.1655,0,4.1657,4.1657,4.1657,4.1578,4.1576,4.1574,4.1572,4.1574,4.1576,4.1578,0,0,0,0,0,0,0,0,0,0,0,0,0,4.1581,4.1583,4.1655,4.1655,4.1655,4.1657,4.1657,4.1657,4.1579,4.1576,4.1574,4.1571,4.1573,4.1576,4.1578,0,0,0,0,0,0,0,0,0,0,0,0,0,4.1601,4.1584,4.1655,4.1616,4.1613,4.1657,4.1657,4.1657,4.1579,4.1576,4.1573,4.157,4.1573,4.1576,4.1579,4.166,0,0,4.1588,4.1589,0,0,0,0,0,0,0,0,4.16,4.1604,4.1622,4.1619,4.1615,4.1614,4.1632,4.1658,4.158,4.1592,4.1572,4.1568,4.159,4.1591,4.1599,4.1661,4.1661,4.1588,4.159,4.1591,4.1592,0,0,0,0,0,0,0,4.1599,4.1604,4.1656,4.1622,4.1618,4.1598,4.1597,4.1637,4.1609,4.1591,4.1585,4.1586,4.1588,4.1596,4.1598,4.1661,4.1588,4.1591,4.1593,4.1594,4.1787,4.179,0,0,0,0,0,0,4.1603,4.1603,4.1656,4.1656,4.16,4.1602,4.1601,4.1618,4.1608,4.1604,4.1589,4.1583,4.1592,4.1595,4.1598,4.1691,4.1591,4.1594,4.1596,4.1784,4.1788,4.1791,0,0,0,0,0,0,4.1602,4.1609,4.1656,4.1628,4.1632,4.1607,4.1626,4.1619,4.1628,4.1607,4.1601,4.1603,4.159,4.1594,4.1645,4.169,4.1595,4.1598,4.178,4.1785,4.179,4.188,0,0,0,0,0,0,4.16,4.1609,4.164,4.1629,4.1634,4.1704,4.1629,4.1622,4.1633,4.1625,4.1618,4.1614,4.1588,4.1641,4.1648,4.1693,4.1601,4.1776,4.1782,4.1788,4.1873,4.1887,4.19,0,0,0,0,0,4.1598,4.1666,4.1642,4.1649,4.1673,4.1706,4.1709,4.1677,4.1637,4.1668,4.1654,4.1614,4.1685,4.1647,4.1654,4.1701,4.1773,4.178,4.1788,4.1867,4.1885,4.19,0,0,0,0,0,0,4.1683,4.1664,4.1637,4.1704,4.1707,4.1693,4.1731,4.1698,4.1713,4.1704,4.1664,4.1663,4.1721,4.1716,4.1674,4.1778,4.1721,4.1731,4.1779,4.1796,4.1809,4.1809,4.1603,0,0,0,0,0,4.171,4.1739,4.172,4.1781,4.1784,4.1757,4.1771,4.1746,4.1748,4.1749,4.1739,4.1742,4.1764,4.178,4.18,4.1872,4.1868,4.1907,4.1921,4.1932,4.194,4.1976,4.1993,4.1816,4.1816,4.1816,0,0,4.1765,4.1758,4.1779,4.1798,4.1798,4.1827,4.1759,4.1794,4.1816,4.1754,4.1801,4.1794,4.1795,4.1856,4.1883,4.1854,4.1988,4.1942,4.1951,4.1953,4.1986,4.2002,4.2017,4.1821,4.182,4.1819,0,0,4.1881,4.188,4.1929,4.1929,4.1929,4.1911,4.1923,4.1913,4.1906,4.1952,4.1906,4.1931,4.1971,4.1973,4.1979,4.2094,4.2057,4.2101,4.2172,4.2207,4.2221,4.2233,4.2272,4.2287,4.211,4.211,4.211,0,4.195,4.1993,4.1958,4.1996,4.2005,4.195,4.1998,4.2001,4.2008,4.2015,4.1982,4.203,4.2027,4.2087,4.2115,4.2122,4.2133,4.2101,4.2222,4.2234,4.2245,4.2281,4.2297,4.2115,4.2114,4.2114,4.2113,0,4.2077,4.2108,4.2147,4.2154,4.2168,4.2211,4.2181,4.2199,4.2173,4.2158,4.2205,4.2199,4.2216,4.2228,4.2204,4.2285,4.2267,4.2229,4.2171,4.2267,4.2301,4.2315,4.2123,4.2121,4.2119,4.2118,0,0,4.2247,4.2233,4.2248,4.2249,4.2244,4.2267,4.2307,4.2323,4.2338,4.2344,4.2376,4.241,4.2375,4.2382,4.2357,4.2388,4.2477,4.2346,4.2345,4.2369,4.2564,4.2591,4.2609,4.2453,4.2456,4.2458,4.2563,0,4.2358,4.2425,4.2394,4.2465,4.2491,4.2439,4.2473,4.2474,4.246,4.2481,4.2466,4.249,4.2442,4.2446,4.2475,4.246,4.2515,4.2452,4.2481,4.2483,4.2481,4.2627,4.2656,4.2756,4.2577,4.2579,4.2581,0,4.2497,4.2507,4.258,4.2568,4.2578,4.261,4.2621,4.2642,4.264,4.2628,4.2636,4.2603,4.264,4.2583,4.2634,4.2592,4.2602,4.2596,4.2599,4.26,4.2537,4.263,4.2787,4.2802,4.2601,4.26,4.2598,0,4.2611,4.2644,4.2691,4.2694,4.2682,4.2705,4.2701,4.2697,4.2708,4.2717,4.2723,4.2738,4.2745,4.2757,4.2728,4.269,4.2782,4.2723,4.2772,4.2773,4.2793,4.2792,4.2954,4.2802,4.2802,4.2802,4.2801,0,4.2738,4.2784,4.2742,4.2771,4.2821,4.2784,4.2834,4.2825,4.2821,4.2846,4.2802,4.2827,4.2789,4.281,4.2788,4.2832,4.2836,4.2827,4.282,4.283,4.2831,4.2835,4.2827,4.2806,4.2805,4.2804,4.2803,0,4.2874,4.2848,4.2896,4.2879,4.2876,4.2914,4.29,4.2925,4.2908,4.2941,4.2947,4.2921,4.2943,4.2916,4.2936,4.2921,4.298,4.2964,4.2981,4.2975,4.3025,4.302,4.3194,4.3214,4.3051,4.3053,4.3054,0,4.2956,4.299,4.2977,4.299,4.2988,4.3011,4.3021,4.2986,4.2999,4.2999,4.3024,4.3043,4.3055,4.3093,4.3076,4.3091,4.3074,4.3133,4.3075,4.3084,4.3072,4.307,4.3073,4.3145,4.3147,4.3148,4.315,0,4.3103,4.3087,4.3104,4.3115,4.3128,4.3136,4.314,4.3154,4.3117,4.3133,4.3155,4.3164,4.3184,4.3202,4.3212,4.3208,4.3173,4.3168,4.318,4.3189,4.3197,4.3192,4.3011,4.3164,4.3163,4.3162,4.3161,4.316,4.3213,4.324,4.3234,4.3253,4.3252,4.3257,4.3279,4.3264,4.3282,4.3294,4.3273,4.33,4.3296,4.3305,4.3305,4.3325,4.3299,4.3317,4.3321,4.3326,4.3332,4.3195,4.3327,4.3327,4.3326,4.3326,4.3326,0,4.3356,4.3349,4.3367,4.3373,4.3388,4.3353,4.3355,4.337,4.3394,4.3393,4.3406,4.343,4.3448,4.3431,4.3445,4.3464,4.3448,4.3469,4.3467,4.3466,4.3356,4.3343,4.3482,4.3482,4.3482,4.3482,4.3482,4.3481,4.3432,4.3475,4.3459,4.35,4.3493,4.3518,4.3523,4.3526,4.3525,4.3554,4.3567,4.3556,4.3549,4.3562,4.3576,4.357,4.3577,4.3603,4.3592,4.3489,4.3474,4.3459,4.3447,4.3605,4.3605,4.37,4.3701,4.3702]}]]